User: anonymous   Login
Location: Gro�sch�nbrunn
(49.5760°N, 11.8868°E)
Time: 11:59:54
(UTC+00:00)
Language:

Cosmos 372 Rocket - Orbit

View from above orbital plane
View from above orbital plane
View from above satellite
View from above satellite

Ground track
Ground track

The orbit data is extracted from the following two-line orbital elements,

1  4589U 70086B   20330.92217685 +.00000155 +00000-0 +55717-4 0  9995
2  4589 074.0582 151.6592 0019964 047.8598 312.4250 14.41609129628014
Epoch (UTC): 25 November 2020 22:07:56
Eccentricity: 0.0019964
inclination: 74.0582°
perigee height: 739 km
apogee height: 767 km
right ascension of ascending node: 151.6592°
argument of perigee: 47.8598°
revolutions per day: 14.41609129
mean anomaly at epoch: 312.4250°
orbit number at epoch: 62801

The dashed part of the orbit path shows where the satellite is in the earth's shadow,  

DLR